Lid_Strength_Index
2 2 2 2 2 2 2 2 2 1 2 2 2 2 2 2 2 2 2 1 2 1 1 1 2 2 2 1 1 1 2 2 4 3 2 1 1 1 1 1 1 1 1
2 3 3 2 2 2 2 2 2 2 1 1 1 1 2 2 2 2 1 1 1 2 2 1 2 1 2 2 2 2 2 1 3 4 2 2 2 1 0 2 2 2 2
2 2 3 2 2 2 2 2 2 2 2 1 2 2 2 2 3 3 3 3 3 3 3 3 2 2 3 3 3 3 2 2 2 3 3 2 2 2 3 4 5 3 3
2 2 2 3 2 2 2 2 2 2 2 1 1 2 2 2 2 2 3 3 4 4 4 4 4 4 3 4 4 4 3 3 3 3 3 3 2 3 3 5 6 5 4
3 2 2 2 2 2 2 2 1 2 2 2 2 2 2 2 2 3 4 4 4 5 6 5 4 4 4 4 4 4 4 3 3 3 3 3 3 3 4 4 6 5 6
2 2 2 1 1 2 2 2 1 2 3 4 5 5 4 3 3 3 3 4 5 6 7 7 6 5 5 5 5 4 4 4 3 3 3 5 6 5 4 4 5 7 8
2 2 2 2 2 2 2 3 4 4 5 7 8 8 7 5 3 3 2 3 4 4 4 5 4 5 6 8 7 7 7 6 4 3 5 6 7 6 5 6 6 6 7
3 3 2 2 2 2 3 4 6 6 6 7 8 9 9 7 5 6 5 7 8 8 7 6 6 5 6 9 8 8 8 8 8 7 7 7 8 7 6 6 7 7 7
4 3 2 2 3 4 5 6 8 9 9 10 9 8 8 7 7 6 7 8 9 10 9 8 7 8 7 7 8 8 8 7 5 5 5 5 6 5 6 8 10 9 10
6 5 2 2 3 5 6 8 9 9 10 10 9 9 8 8 8 8 8 9 10 10 9 9 7 8 8 8 8 8 8 8 7 7 7 7 6 6 6 8 8 9 9
6 7 8 7 7 8 9 9 9 10 10 10 9 8 9 9 9 9 9 9 10 10 10 10 10 9 10 10 9 9 9 8 7 7 8 8 9 8 8 7 7 8 9
8 9 9 9 9 9 10 10 10 10 9 10 10 9 9 9 9 10 10 9 8 9 9 8 9 10 10 10 9 10 9 8 7 8 9 10 11 10 10 8 8 7 7
8 9 9 10 10 10 10 10 10 10 10 10 10 10 10 9 9 9 10 9 8 8 8 8 9 10 10 9 9 9 8 9 9 10 11 11 9 11 12 12 11 10 7
8 10 9 9 11 11 10 10 10 10 11 9 10 10 10 10 9 9 8 8 7 7 7 8 7 8 8 9 10 9 9 9 10 11 11 11 11 12 13 12 12 11 11
11 11 11 12 12 13 13 13 13 13 10 10 10 10 11 11 11 11 10 9 9 10 10 10 11 10 10 10 10 10 11 11 10 11 12 13 12 13 13 13 13 12 13
13 12 12 13 14 14 14 14 11 12 12 12 13 13 13 13 13 12 12 11 11 10 11 12 12 12 12 12 11 11 12 10 11 11 12 12 13 13 13 13 12 12 12
13 14 13 14 15 15 15 15 16 14 12 13 13 13 13 12 12 12 12 11 10 10 11 12 12 12 12 12 12 12 12 12 12 12 11 12 12 12 12 12 11 11 11
12 10 13 14 14 15 14 13 13 14 16 15 13 12 12 12 12 12 11 10 11 11 12 12 12 12 12 12 12 12 12 12 12 11 12 11 11 11 11 11 11 11 11
10 11 12 12 13 13 14 13 13 13 14 14 14 13 13 11 11 11 11 12 13 13 12 12 12 12 12 12 12 12 11 11 11 11 12 11 11 11 11 11 11 7 8
10 8 9 11 12 12 12 12 10 12 13 13 13 13 13 13 12 11 11 12 12 12 12 12 12 12 11 11 11 11 10 10 11 11 11 11 11 11 11 11 11 11 11
8 8 7 10 9 10 9 8 8 10 12 12 12 12 11 11 11 12 12 12 12 12 12 12 11 11 10 10 10 10 10 10 11 11 11 11 11 11 11 12 11 10 10
8 8 8 8 9 9 9 9 8 10 10 11 12 12 10 12 12 12 12 11 11 11 11 11 11 10 9 10 9 10 9 10 11 11 11 12 12 12 11 11 10 10 10
7 6 7 8 8 8 7 8 10 10 10 11 12 13 12 12 11 11 10 10 10 10 10 9 9 9 9 8 8 8 9 10 10 10 11 12 12 12 11 11 11 11 11
6 6 7 7 7 7 8 8 7 8 9 11 12 12 12 11 10 10 10 10 9 9 8 9 9 9 9 9 9 9 9 9 10 10 11 12 12 11 11 11 11 11 11
8 7 6 6 7 7 7 7 7 9 8 9 11 10 10 10 10 10 9 9 8 8 8 9 9 8 8 9 9 10 10 11 11 10 12 12 11 11 10 11 11 11 10
7 7 6 7 7 7 6 6 6 8 9 9 9 10 9 9 9 9 8 8 8 8 8 8 8 8 8 8 8 9 11 11 11 11 12 11 11 10 10 9 9 9 9